TVF342 LFPO-DAOO

Flight info

Callsign TVF342
Flight time 2h 6m
Altitude 33000
Route ERIXU DCT ETAMO DCT GUERE DCT AGN DCT ANETO DCT TURUV DCT GRAUS DCT LOBAR DCT SEROX DCT CASPE DCT MLA DCT CRETA DCT RIMES DCT SAURA DCT TATOS DCT PLANA DCT VLC DCT RIPUX DCT SUMMO DCT MAGAL DCT LIMTU DCT RINDI DCT HAMRA UA34 MOS
Aircraft B738/M-SDGIJ1LRWY/SB1

Departure

Time 2026-04-18 11:04
Airport Paris-Orly Airport (LFPO)

Arrival

Time 2026-04-18 13:10
Airport Oran Es-Sénia (Ahmed Ben Bella) International Airport (DAOO)
Time Latitude Longitude Altitude Speed Heading
2026-04-18 10:36 48.72590 2.36248 284 ft 0 kts 346°
2026-04-18 10:53 48.72579 2.36252 283 ft 2 kts 348°
2026-04-18 10:53 48.72565 2.36257 283 ft 2 kts 345°
2026-04-18 10:54 48.72551 2.36262 283 ft 2 kts 346°
2026-04-18 10:54 48.72538 2.36267 282 ft 2 kts 346°
2026-04-18 10:54 48.72526 2.36272 282 ft 0 kts 346°
2026-04-18 10:54 48.72519 2.36277 282 ft 1 kts 303°
2026-04-18 10:55 48.72516 2.36288 282 ft 0 kts 259°
2026-04-18 10:55 48.72518 2.36297 282 ft 1 kts 253°
2026-04-18 10:55 48.72518 2.36298 282 ft 0 kts 254°
2026-04-18 10:57 48.72507 2.36238 282 ft 6 kts 254°
2026-04-18 10:57 48.72496 2.36176 282 ft 7 kts 254°
2026-04-18 10:58 48.72475 2.36061 282 ft 11 kts 256°
2026-04-18 10:58 48.72467 2.35950 282 ft 9 kts 273°
2026-04-18 10:58 48.72477 2.35856 282 ft 8 kts 277°
2026-04-18 10:58 48.72475 2.35764 280 ft 11 kts 262°
2026-04-18 10:59 48.72459 2.35639 278 ft 11 kts 257°
2026-04-18 10:59 48.72436 2.35527 278 ft 10 kts 252°
2026-04-18 10:59 48.72428 2.35417 280 ft 10 kts 285°
2026-04-18 10:59 48.72467 2.35354 281 ft 7 kts 339°
2026-04-18 11:00 48.72555 2.35316 282 ft 17 kts 344°
2026-04-18 11:00 48.72669 2.35268 282 ft 16 kts 345°
2026-04-18 11:00 48.72786 2.35275 282 ft 19 kts 17°
2026-04-18 11:00 48.72910 2.35339 282 ft 18 kts 18°
2026-04-18 11:01 48.73028 2.35412 280 ft 18 kts 37°
2026-04-18 11:01 48.73106 2.35562 282 ft 16 kts 44°
2026-04-18 11:01 48.73194 2.35647 282 ft 14 kts 51°
2026-04-18 11:02 48.73282 2.35892 285 ft 17 kts 62°
2026-04-18 11:02 48.73342 2.36042 285 ft 15 kts 47°
2026-04-18 11:02 48.73396 2.36094 286 ft 12 kts 18°
2026-04-18 11:02 48.73467 2.36089 287 ft 8 kts 334°
2026-04-18 11:03 48.73510 2.36016 288 ft 14 kts 282°
2026-04-18 11:03 48.73465 2.35841 285 ft 27 kts 242°
2026-04-18 11:03 48.73242 2.35211 282 ft 105 kts 242°
2026-04-18 11:03 48.72790 2.33930 283 ft 169 kts 242°
2026-04-18 11:04 48.72227 2.32306 968 ft 176 kts 244°
2026-04-18 11:04 48.71695 2.30632 1586 ft 177 kts 243°
2026-04-18 11:04 48.71035 2.28942 1715 ft 198 kts 238°
2026-04-18 11:04 48.70250 2.27138 2009 ft 210 kts 237°
2026-04-18 11:05 48.69400 2.25185 2206 ft 229 kts 237°
2026-04-18 11:05 48.68510 2.23135 2527 ft 241 kts 237°
2026-04-18 11:05 48.67571 2.20920 2813 ft 256 kts 237°
2026-04-18 11:05 48.66607 2.18640 3321 ft 259 kts 237°
2026-04-18 11:06 48.65507 2.16400 4085 ft 265 kts 222°
2026-04-18 11:06 48.64024 2.14872 5074 ft 262 kts 209°
2026-04-18 11:06 48.62417 2.13593 5942 ft 263 kts 208°
2026-04-18 11:06 48.60821 2.12279 6814 ft 264 kts 211°
2026-04-18 11:07 48.59210 2.10875 7633 ft 267 kts 212°
2026-04-18 11:07 48.57613 2.09445 8460 ft 269 kts 213°
2026-04-18 11:07 48.55998 2.07993 9288 ft 272 kts 212°
2026-04-18 11:07 48.54279 2.06822 9934 ft 279 kts 199°
2026-04-18 11:08 48.52313 2.06595 10158 ft 288 kts 174°
2026-04-18 11:08 48.50374 2.07530 10197 ft 292 kts 161°
2026-04-18 11:08 48.48529 2.08756 10193 ft 291 kts 160°
2026-04-18 11:08 48.46674 2.09992 10204 ft 296 kts 160°
2026-04-18 11:09 48.44684 2.11259 10486 ft 316 kts 161°
2026-04-18 11:09 48.42591 2.12558 10895 ft 331 kts 161°
2026-04-18 11:09 48.40427 2.13892 11274 ft 347 kts 161°
2026-04-18 11:09 48.38129 2.15309 11651 ft 362 kts 161°
2026-04-18 11:10 48.35746 2.16780 12100 ft 374 kts 161°
2026-04-18 11:10 48.33320 2.18283 12788 ft 379 kts 161°
2026-04-18 11:10 48.30871 2.19803 13517 ft 382 kts 161°
2026-04-18 11:10 48.28366 2.21149 14201 ft 383 kts 167°
2026-04-18 11:11 48.25780 2.22059 14867 ft 385 kts 173°
2026-04-18 11:11 48.23122 2.22707 15513 ft 388 kts 175°
2026-04-18 11:11 48.20403 2.23272 16175 ft 392 kts 176°
2026-04-18 11:11 48.17692 2.23826 16835 ft 395 kts 176°
2026-04-18 11:12 48.14948 2.24415 17451 ft 399 kts 175°
2026-04-18 11:12 48.12209 2.25035 18061 ft 403 kts 175°
2026-04-18 11:12 48.09436 2.25685 18646 ft 408 kts 175°
2026-04-18 11:12 48.06587 2.26223 19289 ft 408 kts 179°
2026-04-18 11:13 48.03727 2.26519 19847 ft 410 kts 181°
2026-04-18 11:13 48.00865 2.26685 20490 ft 411 kts 182°
2026-04-18 11:13 47.98031 2.26813 21054 ft 414 kts 182°
2026-04-18 11:13 47.95118 2.26942 21600 ft 418 kts 182°
2026-04-18 11:14 47.92189 2.27080 22129 ft 421 kts 182°
2026-04-18 11:14 47.89228 2.27233 22657 ft 425 kts 182°
2026-04-18 11:14 47.86285 2.27397 23198 ft 427 kts 182°
2026-04-18 11:14 47.83299 2.27571 23714 ft 431 kts 182°
2026-04-18 11:15 47.80293 2.27752 24227 ft 434 kts 182°
2026-04-18 11:15 47.77235 2.27941 24710 ft 437 kts 182°
2026-04-18 11:15 47.74205 2.28129 25224 ft 439 kts 182°
2026-04-18 11:15 47.71124 2.28320 25651 ft 443 kts 182°
2026-04-18 11:16 47.68039 2.28513 26147 ft 444 kts 182°
2026-04-18 11:16 47.64945 2.28707 26565 ft 448 kts 182°
2026-04-18 11:16 47.61796 2.28905 27035 ft 449 kts 182°
2026-04-18 11:16 47.58655 2.29102 27385 ft 454 kts 182°
2026-04-18 11:17 47.55505 2.29300 27850 ft 455 kts 182°
2026-04-18 11:17 47.52319 2.29500 28264 ft 457 kts 182°
2026-04-18 11:17 47.49118 2.29701 28742 ft 458 kts 182°
2026-04-18 11:17 47.45963 2.29902 29421 ft 453 kts 182°
2026-04-18 11:18 47.42836 2.30103 30057 ft 449 kts 182°
2026-04-18 11:18 47.39711 2.30303 30673 ft 446 kts 182°
2026-04-18 11:18 47.36609 2.30501 31203 ft 444 kts 182°
2026-04-18 11:18 47.33551 2.30693 31644 ft 443 kts 182°
2026-04-18 11:19 47.30456 2.30885 32044 ft 443 kts 182°
2026-04-18 11:19 47.27375 2.31075 32467 ft 443 kts 182°
2026-04-18 11:19 47.24305 2.31265 32911 ft 441 kts 182°
2026-04-18 11:19 47.21220 2.31455 33167 ft 443 kts 182°
2026-04-18 11:20 47.15064 2.31834 33177 ft 441 kts 182°
2026-04-18 11:20 47.08916 2.32214 33178 ft 441 kts 182°
2026-04-18 11:21 47.02733 2.32591 33179 ft 441 kts 182°
2026-04-18 11:21 46.96595 2.32966 33173 ft 442 kts 182°
2026-04-18 11:22 46.90440 2.33342 33173 ft 443 kts 182°
2026-04-18 11:22 46.84288 2.33309 33173 ft 437 kts 189°
2026-04-18 11:23 46.78341 2.31770 33175 ft 432 kts 198°
2026-04-18 11:23 46.72540 2.29547 33176 ft 431 kts 199°
2026-04-18 11:24 46.66750 2.27223 33176 ft 431 kts 199°
2026-04-18 11:24 46.60923 2.24920 33179 ft 432 kts 199°
2026-04-18 11:25 46.55106 2.22662 33183 ft 431 kts 199°
2026-04-18 11:25 46.49305 2.20436 33185 ft 432 kts 199°
2026-04-18 11:26 46.43472 2.18213 33188 ft 432 kts 199°
2026-04-18 11:26 46.37649 2.16001 33185 ft 433 kts 199°
2026-04-18 11:27 46.31815 2.13788 33186 ft 432 kts 199°
2026-04-18 11:27 46.25968 2.11575 33185 ft 433 kts 199°
2026-04-18 11:28 46.20120 2.09366 33189 ft 433 kts 199°
2026-04-18 11:28 46.14386 2.06689 33190 ft 430 kts 204°
2026-04-18 11:29 46.08819 2.03564 33193 ft 429 kts 205°
2026-04-18 11:29 46.03257 2.00396 33192 ft 430 kts 205°
2026-04-18 11:30 45.97641 1.97251 33192 ft 430 kts 205°
2026-04-18 11:30 45.92057 1.94166 33195 ft 430 kts 205°
2026-04-18 11:31 45.86450 1.91095 33200 ft 430 kts 205°
2026-04-18 11:31 45.80848 1.88041 33193 ft 430 kts 205°
2026-04-18 11:32 45.75245 1.84996 33193 ft 431 kts 205°
2026-04-18 11:32 45.69594 1.81933 33190 ft 431 kts 205°
2026-04-18 11:33 45.63969 1.78891 33194 ft 432 kts 205°
2026-04-18 11:33 45.58322 1.75844 33192 ft 431 kts 205°
2026-04-18 11:34 45.52713 1.72825 33188 ft 431 kts 205°
2026-04-18 11:34 45.47089 1.69804 33189 ft 431 kts 204°
2026-04-18 11:35 45.41431 1.66769 33190 ft 432 kts 204°
2026-04-18 11:35 45.35793 1.63752 33182 ft 431 kts 205°
2026-04-18 11:36 45.30170 1.60746 33188 ft 434 kts 205°
2026-04-18 11:36 45.24504 1.57725 33186 ft 433 kts 205°
2026-04-18 11:37 45.18836 1.54711 33185 ft 433 kts 204°
2026-04-18 11:37 45.13174 1.51711 33187 ft 433 kts 205°
2026-04-18 11:38 45.07521 1.48718 33192 ft 433 kts 205°
2026-04-18 11:38 45.01863 1.45731 33196 ft 434 kts 204°
2026-04-18 11:39 44.96189 1.42738 33197 ft 433 kts 204°
2026-04-18 11:39 44.90512 1.39751 33193 ft 435 kts 204°
2026-04-18 11:40 44.84859 1.36784 33192 ft 435 kts 204°
2026-04-18 11:40 44.79151 1.33788 33185 ft 435 kts 204°
2026-04-18 11:41 44.73474 1.30815 33190 ft 436 kts 204°
2026-04-18 11:41 44.67796 1.27855 33187 ft 435 kts 204°
2026-04-18 11:42 44.62097 1.24889 33183 ft 435 kts 204°
2026-04-18 11:42 44.56390 1.21929 33190 ft 436 kts 204°
2026-04-18 11:43 44.50682 1.18970 33189 ft 435 kts 204°
2026-04-18 11:43 44.45009 1.16038 33184 ft 436 kts 203°
2026-04-18 11:44 44.39281 1.13081 33185 ft 436 kts 203°
2026-04-18 11:44 44.33567 1.10136 33185 ft 437 kts 204°
2026-04-18 11:45 44.27866 1.07204 33186 ft 437 kts 203°
2026-04-18 11:45 44.22174 1.04283 33182 ft 437 kts 203°
2026-04-18 11:46 44.16441 1.01351 33184 ft 436 kts 203°
2026-04-18 11:46 44.10704 0.98423 33181 ft 437 kts 203°
2026-04-18 11:47 44.04983 0.95508 33183 ft 437 kts 203°
2026-04-18 11:47 43.99250 0.92594 33180 ft 437 kts 203°
2026-04-18 11:48 43.93528 0.89692 33181 ft 437 kts 203°
2026-04-18 11:48 43.87733 0.86998 33183 ft 440 kts 198°
2026-04-18 11:49 43.81730 0.85152 33182 ft 444 kts 194°
2026-04-18 11:49 43.75653 0.83606 33185 ft 442 kts 194°
2026-04-18 11:50 43.69548 0.82068 33184 ft 442 kts 194°
2026-04-18 11:50 43.63519 0.80509 33184 ft 442 kts 194°
2026-04-18 11:51 43.57377 0.78893 33184 ft 449 kts 194°
2026-04-18 11:51 43.51235 0.77270 33176 ft 448 kts 194°
2026-04-18 11:52 43.45106 0.75651 33174 ft 449 kts 194°
2026-04-18 11:52 43.38955 0.74028 33176 ft 449 kts 194°
2026-04-18 11:53 43.32841 0.72416 33177 ft 448 kts 194°
2026-04-18 11:53 43.26694 0.70798 33185 ft 449 kts 194°
2026-04-18 11:54 43.20523 0.69176 33187 ft 448 kts 194°
2026-04-18 11:54 43.14381 0.67566 33197 ft 449 kts 194°
2026-04-18 11:55 43.08203 0.65949 33201 ft 449 kts 194°
2026-04-18 11:55 43.02052 0.64343 33203 ft 449 kts 194°
2026-04-18 11:56 42.95892 0.62740 33217 ft 450 kts 194°
2026-04-18 11:56 42.89749 0.61143 33228 ft 449 kts 194°
2026-04-18 11:57 42.83588 0.59545 33238 ft 450 kts 194°
2026-04-18 11:57 42.77430 0.57949 33254 ft 449 kts 194°
2026-04-18 11:58 42.71241 0.56330 33263 ft 449 kts 194°
2026-04-18 11:58 42.65109 0.54750 33256 ft 450 kts 194°
2026-04-18 11:59 42.58915 0.53161 33250 ft 450 kts 194°
2026-04-18 11:59 42.52747 0.51584 33236 ft 449 kts 194°
2026-04-18 12:00 42.46589 0.50011 33225 ft 450 kts 194°
2026-04-18 12:00 42.40411 0.48435 33210 ft 449 kts 194°
2026-04-18 12:01 42.31167 0.46079 33199 ft 449 kts 194°
2026-04-18 12:02 42.24980 0.44506 33192 ft 450 kts 194°
2026-04-18 12:02 42.18819 0.42944 33195 ft 450 kts 194°
2026-04-18 12:03 42.12678 0.41387 33193 ft 448 kts 194°
2026-04-18 12:03 42.06509 0.39825 33195 ft 448 kts 194°
2026-04-18 12:04 42.00332 0.38263 33186 ft 449 kts 194°
2026-04-18 12:04 41.94184 0.36712 33180 ft 449 kts 194°
2026-04-18 12:05 41.88011 0.35159 33172 ft 449 kts 194°
2026-04-18 12:05 41.81867 0.33616 33166 ft 450 kts 194°
2026-04-18 12:06 41.75681 0.32067 33162 ft 450 kts 193°
2026-04-18 12:06 41.69541 0.30528 33154 ft 449 kts 193°
2026-04-18 12:07 41.63354 0.28985 33151 ft 451 kts 193°
2026-04-18 12:07 41.57138 0.27438 33151 ft 451 kts 193°
2026-04-18 12:08 41.50933 0.25896 33152 ft 452 kts 193°
2026-04-18 12:08 41.44768 0.24367 33147 ft 452 kts 193°
2026-04-18 12:09 41.38526 0.22824 33144 ft 452 kts 193°
2026-04-18 12:09 41.32357 0.21302 33140 ft 452 kts 193°
2026-04-18 12:10 41.26121 0.19766 33134 ft 451 kts 193°
2026-04-18 12:10 41.19941 0.18247 33129 ft 452 kts 193°
2026-04-18 12:11 41.13720 0.16715 33144 ft 453 kts 194°
2026-04-18 12:11 41.07606 0.14672 33153 ft 451 kts 199°
2026-04-18 12:12 41.01617 0.12198 33161 ft 450 kts 200°
2026-04-18 12:12 40.95636 0.09680 33168 ft 450 kts 200°
2026-04-18 12:13 40.89624 0.07191 33171 ft 449 kts 200°
2026-04-18 12:13 40.83618 0.04746 33176 ft 450 kts 199°
2026-04-18 12:14 40.77618 0.02329 33179 ft 451 kts 199°
2026-04-18 12:14 40.71584 -0.00088 33181 ft 450 kts 199°
2026-04-18 12:15 40.65577 -0.02485 33186 ft 451 kts 199°
2026-04-18 12:15 40.59565 -0.04878 33193 ft 450 kts 199°
2026-04-18 12:16 40.53532 -0.07275 33199 ft 450 kts 199°
2026-04-18 12:16 40.47531 -0.09656 33202 ft 450 kts 199°
2026-04-18 12:17 40.41492 -0.12047 33206 ft 450 kts 199°
2026-04-18 12:17 40.35487 -0.14420 33199 ft 450 kts 199°
2026-04-18 12:18 40.29477 -0.16792 33197 ft 451 kts 199°
2026-04-18 12:18 40.23444 -0.19168 33200 ft 451 kts 199°
2026-04-18 12:19 40.17420 -0.21535 33190 ft 451 kts 199°
2026-04-18 12:19 40.11404 -0.23894 33176 ft 450 kts 199°
2026-04-18 12:20 40.05398 -0.26246 33166 ft 449 kts 199°
2026-04-18 12:20 39.99340 -0.28613 33159 ft 450 kts 199°
2026-04-18 12:21 39.93315 -0.30964 33161 ft 451 kts 199°
2026-04-18 12:21 39.87290 -0.33308 33158 ft 451 kts 199°
2026-04-18 12:22 39.81258 -0.35653 33162 ft 451 kts 199°
2026-04-18 12:22 39.75222 -0.37996 33164 ft 450 kts 199°
2026-04-18 12:23 39.69217 -0.40323 33159 ft 451 kts 199°
2026-04-18 12:23 39.63183 -0.42658 33156 ft 451 kts 199°
2026-04-18 12:24 39.57147 -0.44990 33149 ft 451 kts 199°
2026-04-18 12:24 39.51060 -0.47179 33139 ft 452 kts 195°
2026-04-18 12:25 39.44762 -0.47736 33139 ft 458 kts 179°
2026-04-18 12:25 39.38402 -0.46801 33135 ft 459 kts 174°
2026-04-18 12:26 39.32040 -0.45534 33136 ft 460 kts 173°
2026-04-18 12:26 39.25681 -0.44265 33129 ft 459 kts 174°
2026-04-18 12:27 39.19342 -0.43059 33128 ft 460 kts 174°
2026-04-18 12:27 39.12974 -0.41889 33122 ft 460 kts 174°
2026-04-18 12:28 39.06639 -0.40743 33127 ft 460 kts 174°
2026-04-18 12:28 39.00251 -0.39596 33132 ft 460 kts 174°
2026-04-18 12:29 38.93886 -0.38455 33150 ft 460 kts 174°
2026-04-18 12:29 38.87554 -0.37323 33169 ft 459 kts 174°
2026-04-18 12:30 38.81192 -0.36188 33195 ft 460 kts 174°
2026-04-18 12:30 38.74851 -0.35058 33217 ft 460 kts 174°
2026-04-18 12:31 38.68480 -0.33926 33201 ft 460 kts 174°
2026-04-18 12:31 38.62072 -0.32788 33182 ft 460 kts 174°
2026-04-18 12:32 38.55733 -0.31666 33160 ft 460 kts 174°
2026-04-18 12:32 38.49342 -0.30536 33146 ft 460 kts 174°
2026-04-18 12:33 38.42984 -0.29414 33141 ft 460 kts 174°
2026-04-18 12:33 38.36620 -0.28293 33145 ft 460 kts 174°
2026-04-18 12:34 38.30254 -0.27165 33146 ft 459 kts 174°
2026-04-18 12:34 38.23918 -0.26036 33148 ft 460 kts 174°
2026-04-18 12:35 38.17555 -0.24902 33147 ft 461 kts 174°
2026-04-18 12:35 38.11159 -0.23766 33149 ft 461 kts 174°
2026-04-18 12:36 38.04772 -0.22635 33145 ft 460 kts 174°
2026-04-18 12:36 37.98430 -0.21532 33147 ft 460 kts 174°
2026-04-18 12:37 37.92052 -0.20425 33148 ft 460 kts 174°
2026-04-18 12:37 37.85668 -0.19315 33148 ft 460 kts 174°
2026-04-18 12:38 37.79302 -0.18208 33148 ft 459 kts 174°
2026-04-18 12:38 37.72939 -0.17103 33150 ft 460 kts 174°
2026-04-18 12:39 37.66565 -0.16000 33150 ft 460 kts 174°
2026-04-18 12:39 37.60236 -0.14905 33152 ft 460 kts 174°
2026-04-18 12:40 37.53830 -0.13798 33152 ft 460 kts 174°
2026-04-18 12:40 37.47501 -0.12706 33152 ft 460 kts 174°
2026-04-18 12:41 37.41089 -0.11602 33152 ft 460 kts 174°
2026-04-18 12:41 37.34746 -0.10512 33152 ft 460 kts 174°
2026-04-18 12:42 37.28399 -0.09423 33153 ft 460 kts 174°
2026-04-18 12:42 37.22005 -0.08328 33153 ft 460 kts 174°
2026-04-18 12:43 37.15658 -0.07243 33153 ft 459 kts 174°
2026-04-18 12:43 37.09296 -0.06157 33153 ft 460 kts 174°
2026-04-18 12:44 37.02906 -0.05066 33152 ft 460 kts 174°
2026-04-18 12:44 36.96550 -0.03980 33152 ft 459 kts 174°
2026-04-18 12:45 36.90206 -0.02898 33150 ft 459 kts 174°
2026-04-18 12:45 36.83830 -0.01821 33147 ft 459 kts 174°
2026-04-18 12:46 36.77448 -0.00783 33141 ft 460 kts 174°
2026-04-18 12:46 36.71093 0.00237 33142 ft 460 kts 174°
2026-04-18 12:47 36.64735 0.01257 33140 ft 460 kts 174°
2026-04-18 12:47 36.58342 0.02285 33136 ft 460 kts 174°
2026-04-18 12:48 36.51970 0.03309 33130 ft 461 kts 174°
2026-04-18 12:48 36.45565 0.04338 33125 ft 460 kts 174°
2026-04-18 12:49 36.39202 0.05358 33123 ft 460 kts 174°
2026-04-18 12:49 36.32826 0.06380 33121 ft 457 kts 174°
2026-04-18 12:49 36.29658 0.06888 32815 ft 451 kts 174°
2026-04-18 12:50 36.26558 0.07392 31939 ft 455 kts 174°
2026-04-18 12:50 36.23393 0.07922 30955 ft 460 kts 174°
2026-04-18 12:50 36.20202 0.08464 30130 ft 462 kts 174°
2026-04-18 12:50 36.17023 0.09007 29292 ft 463 kts 174°
2026-04-18 12:51 36.13811 0.09558 28783 ft 457 kts 173°
2026-04-18 12:51 36.10679 0.10094 28179 ft 453 kts 173°
2026-04-18 12:51 36.07566 0.10626 27546 ft 450 kts 173°
2026-04-18 12:51 36.04482 0.11099 26955 ft 445 kts 176°
2026-04-18 12:52 36.01381 0.11265 26329 ft 440 kts 183°
2026-04-18 12:52 35.98385 0.10792 25729 ft 435 kts 194°
2026-04-18 12:52 35.95493 0.09671 25131 ft 429 kts 203°
2026-04-18 12:52 35.92809 0.08106 24500 ft 426 kts 209°
2026-04-18 12:53 35.90261 0.06220 23878 ft 422 kts 216°
2026-04-18 12:53 35.88030 0.03963 23278 ft 417 kts 225°
2026-04-18 12:53 35.86130 0.01283 22684 ft 413 kts 234°
2026-04-18 12:53 35.84546 -0.01679 22064 ft 410 kts 240°
2026-04-18 12:54 35.83201 -0.04751 21486 ft 407 kts 244°
2026-04-18 12:54 35.81972 -0.07934 20889 ft 404 kts 246°
2026-04-18 12:54 35.80846 -0.11066 20315 ft 401 kts 247°
2026-04-18 12:54 35.79751 -0.14194 19720 ft 398 kts 248°
2026-04-18 12:55 35.78651 -0.17345 19139 ft 396 kts 248°
2026-04-18 12:55 35.77562 -0.20450 18574 ft 393 kts 248°
2026-04-18 12:55 35.76476 -0.23530 18092 ft 387 kts 248°
2026-04-18 12:55 35.75423 -0.26490 17910 ft 373 kts 248°
2026-04-18 12:56 35.74386 -0.29382 17775 ft 359 kts 248°
2026-04-18 12:56 35.73396 -0.32129 17658 ft 345 kts 248°
2026-04-18 12:56 35.72434 -0.34789 17574 ft 332 kts 248°
2026-04-18 12:56 35.71508 -0.37347 17446 ft 319 kts 248°
2026-04-18 12:57 35.70521 -0.39781 17199 ft 313 kts 237°
2026-04-18 12:57 35.69146 -0.41859 16791 ft 313 kts 231°
2026-04-18 12:57 35.67738 -0.43919 16390 ft 312 kts 232°
2026-04-18 12:57 35.66377 -0.45966 16018 ft 311 kts 232°
2026-04-18 12:58 35.65020 -0.48026 15646 ft 309 kts 232°
2026-04-18 12:58 35.63655 -0.50099 15238 ft 309 kts 232°
2026-04-18 12:58 35.62280 -0.52190 14547 ft 319 kts 232°
2026-04-18 12:58 35.60880 -0.54322 13851 ft 322 kts 232°
2026-04-18 12:59 35.59459 -0.56490 13239 ft 328 kts 232°
2026-04-18 12:59 35.58020 -0.58689 12609 ft 329 kts 232°
2026-04-18 12:59 35.56602 -0.60856 12002 ft 328 kts 232°
2026-04-18 12:59 35.55151 -0.63071 11380 ft 327 kts 232°
2026-04-18 13:00 35.53740 -0.65226 10773 ft 326 kts 232°
2026-04-18 13:00 35.52431 -0.67521 10155 ft 324 kts 239°
2026-04-18 13:00 35.51320 -0.69905 9548 ft 322 kts 242°
2026-04-18 13:00 35.50263 -0.72316 8946 ft 320 kts 243°
2026-04-18 13:01 35.49226 -0.74712 8451 ft 315 kts 243°
2026-04-18 13:01 35.48212 -0.77065 7969 ft 310 kts 243°
2026-04-18 13:01 35.47237 -0.79448 7474 ft 306 kts 246°
2026-04-18 13:01 35.46368 -0.81819 6998 ft 303 kts 247°
2026-04-18 13:02 35.45513 -0.84191 6545 ft 305 kts 247°
2026-04-18 13:02 35.44688 -0.86568 6098 ft 304 kts 252°
2026-04-18 13:02 35.44488 -0.89084 5965 ft 284 kts 282°
2026-04-18 13:02 35.45190 -0.91214 5979 ft 259 kts 305°
2026-04-18 13:03 35.46301 -0.92851 5842 ft 244 kts 319°
2026-04-18 13:03 35.49077 -0.95033 5300 ft 230 kts 346°
2026-04-18 13:03 35.50649 -0.95286 5041 ft 224 kts
2026-04-18 13:04 35.52189 -0.95055 4758 ft 220 kts 19°
2026-04-18 13:04 35.53426 -0.94025 4390 ft 220 kts 52°
2026-04-18 13:04 35.54038 -0.92302 4072 ft 220 kts 79°
2026-04-18 13:04 35.54116 -0.90450 3810 ft 216 kts 87°
2026-04-18 13:05 35.54197 -0.88613 3577 ft 211 kts 82°
2026-04-18 13:05 35.54427 -0.86863 3373 ft 204 kts 76°
2026-04-18 13:05 35.54785 -0.85189 3239 ft 195 kts 71°
2026-04-18 13:05 35.55199 -0.83633 3098 ft 187 kts 69°
2026-04-18 13:06 35.55641 -0.82140 2962 ft 184 kts 68°
2026-04-18 13:06 35.56101 -0.80678 2821 ft 185 kts 67°
2026-04-18 13:06 35.56585 -0.79191 2640 ft 189 kts 67°
2026-04-18 13:06 35.57089 -0.77675 2452 ft 188 kts 66°
2026-04-18 13:07 35.57565 -0.76258 2305 ft 174 kts 66°
2026-04-18 13:07 35.58031 -0.74879 2151 ft 172 kts 66°
2026-04-18 13:07 35.58495 -0.73518 1921 ft 168 kts 66°
2026-04-18 13:07 35.58933 -0.72232 1687 ft 157 kts 66°
2026-04-18 13:08 35.59332 -0.71037 1463 ft 146 kts 66°
2026-04-18 13:08 35.59709 -0.69907 1331 ft 140 kts 66°
2026-04-18 13:08 35.60083 -0.68779 1141 ft 142 kts 66°
2026-04-18 13:08 35.60450 -0.67670 917 ft 140 kts 67°
2026-04-18 13:09 35.60815 -0.66563 698 ft 137 kts 65°
2026-04-18 13:09 35.61196 -0.65507 521 ft 135 kts 63°
2026-04-18 13:09 35.61569 -0.64463 365 ft 132 kts 65°
2026-04-18 13:09 35.61917 -0.63458 297 ft 113 kts 64°
2026-04-18 13:10 35.62149 -0.62788 297 ft 58 kts 67°
2026-04-18 13:10 35.62249 -0.62495 297 ft 12 kts 72°
2026-04-18 13:10 35.62272 -0.62424 296 ft 3 kts 44°
2026-04-18 13:10 35.62282 -0.62407 296 ft 1 kts 124°
2026-04-18 13:11 35.62265 -0.62412 295 ft 3 kts 211°
2026-04-18 13:11 35.62235 -0.62436 296 ft 9 kts 212°
2026-04-18 13:11 35.62152 -0.62446 296 ft 12 kts 161°
2026-04-18 13:11 35.62073 -0.62407 295 ft 11 kts 158°
2026-04-18 13:12 35.61995 -0.62370 294 ft 12 kts 158°
2026-04-18 13:12 35.61880 -0.62308 293 ft 22 kts 149°
2026-04-18 13:12 35.61792 -0.62163 291 ft 22 kts 91°
2026-04-18 13:12 35.61834 -0.61991 291 ft 20 kts 66°
2026-04-18 13:13 35.61902 -0.61795 292 ft 31 kts 66°
2026-04-18 13:13 35.61990 -0.61537 294 ft 25 kts 67°
2026-04-18 13:13 35.62020 -0.61402 294 ft 14 kts 115°
2026-04-18 13:13 35.61940 -0.61339 294 ft 13 kts 137°
2026-04-18 13:14 35.61915 -0.61249 296 ft 7 kts 125°
2026-04-18 13:14 35.61892 -0.61216 296 ft 2 kts 131°
2026-04-18 13:14 35.61877 -0.61195 297 ft 2 kts 129°
2026-04-18 13:14 35.61871 -0.61186 297 ft 0 kts 129°
2026-04-18 13:15 35.61870 -0.61186 297 ft 0 kts 129°